Webcam Flughafen St.Gallen-Altenrhein

Live-Bilder und Zeitraffer LSZR / ACH.

 

Live aus Altenrhein
LIVE
LSZR 150450Z AUTO VRB01KT CAVOK 16/16 Q1016
Zeitraffer heute
2020-08-15 00:14:21
LSZR 142150Z AUTO VRB02KT CAVOK 19/17 Q1017